KE6AFE Weather Reports


time (UTC)temp
F
wind
direction
speed
knots
gust
knots
rain 1hr
in
rain 24hr
in
rain mn
in
humidity
%
barometer
mb
20260903063818 62 1 0.0 0.0 0.00 0.00 0.00 70 1017.2
20260903062808 62 1 0.0 0.0 0.00 0.00 0.00 69 1017.2
20260903061758 63 1 0.0 0.0 0.00 0.00 0.00 70 1017.2
20260903060748 63 1 0.0 0.0 0.00 0.00 0.00 70 1017.2
20260903055738 63 1 0.0 0.0 0.00 0.00 0.00 70 1017.3
20260903054728 64 1 0.0 0.0 0.00 0.00 0.00 69 1017.4
20260903053718 64 1 0.0 0.0 0.00 0.00 0.00 70 1017.5
20260903052708 64 1 0.0 0.0 0.00 0.00 0.00 69 1017.6
20260903051658 64 1 0.0 0.0 0.00 0.00 0.00 70 1017.6
20260903050648 65 1 0.0 0.0 0.00 0.00 0.00 69 1017.7
20260903045638 65 1 0.0 0.0 0.00 0.00 0.00 69 1017.6
20260903044628 65 1 0.0 0.0 0.00 0.00 0.00 68 1017.5
20260903043618 65 2 0.0 0.0 0.00 0.00 0.00 65 1017.5
20260903042608 66 1 0.0 0.0 0.00 0.00 0.00 64 1017.4
20260903041558 66 1 0.0 0.0 0.00 0.00 0.00 63 1017.3
20260903040548 66 1 0.0 0.0 0.00 0.00 0.00 62 1017.2
20260903035538 67 1 0.0 0.0 0.00 0.00 0.00 61 1017.1
20260903034528 67 1 0.0 0.0 0.00 0.00 0.00 61 1017.0
20260903033518 67 1 0.0 0.0 0.00 0.00 0.00 61 1016.9
20260903032508 68 1 0.0 0.0 0.00 0.00 0.00 60 1016.8
20260903031458 68 1 0.0 0.0 0.00 0.00 0.00 60 1016.8
20260903030448 69 1 0.0 0.0 0.00 0.00 0.00 59 1016.7
20260903025438 69 1 0.0 0.0 0.00 0.00 0.00 59 1016.7
20260903024428 69 1 0.0 0.0 0.00 0.00 0.00 58 1016.6
20260903023418 69 1 0.0 0.0 0.00 0.00 0.00 58 1016.7
20260903022408 70 1 0.0 0.0 0.00 0.00 0.00 58 1016.7
20260903021358 70 1 0.0 0.0 0.00 0.00 0.00 57 1016.8
20260903020348 71 1 0.0 0.0 0.00 0.00 0.00 57 1016.9
20260903015338 71 1 0.0 0.0 0.00 0.00 0.00 56 1017.1
20260903014332 72 1 0.0 0.0 0.00 0.00 0.00 55 1017.2
20260903013318 72 1 0.0 0.0 0.00 0.00 0.00 55 1017.3
20260903012308 73 1 0.0 0.0 0.00 0.00 0.00 54 1017.4
20260903011258 73 1 0.0 0.0 0.00 0.00 0.00 54 1017.5
20260903010248 73 1 0.0 0.0 0.00 0.00 0.00 54 1017.5
20260903005238 74 1 0.0 0.0 0.00 0.00 0.00 52 1017.6
20260903004228 74 1 0.0 0.0 0.00 0.00 0.00 52 1017.7
20260903003218 75 1 0.0 0.0 0.00 0.00 0.00 51 1017.7
20260903002208 75 1 0.0 0.0 0.00 0.00 0.00 51 1017.7
20260903001158 75 1 0.0 0.0 0.00 0.00 0.00 50 1017.9
20260903000148 76 1 0.0 0.0 0.00 0.00 0.00 51 1017.9
20260902235138 76 1 0.0 0.0 0.00 0.00 0.00 50 1018.0
20260902234128 76 1 0.0 0.0 0.00 0.00 0.00 51 1018.0
20260902233118 76 1 0.0 0.0 0.00 0.00 0.00 51 1018.0
20260902232108 76 1 0.0 0.0 0.00 0.00 0.00 51 1018.2
20260902231058 77 1 0.0 0.0 0.00 0.00 0.00 50 1018.2
20260902230048 77 1 0.0 0.0 0.00 0.00 0.00 51 1018.3
20260902225038 77 1 0.0 0.0 0.00 0.00 0.00 51 1018.5
20260902224028 77 1 0.0 0.0 0.00 0.00 0.00 51 1018.6
20260902223018 77 1 0.0 0.0 0.00 0.00 0.00 51 1018.6
20260902222008 78 1 0.0 0.0 0.00 0.00 0.00 51 1018.7
20260902220958 78 1 0.0 0.0 0.00 0.00 0.00 51 1018.8
20260902215948 77 1 0.0 0.0 0.00 0.00 0.00 52 1018.8
20260902214938 78 1 0.0 0.0 0.00 0.00 0.00 52 1018.8
20260902213928 78 1 0.0 0.0 0.00 0.00 0.00 52 1018.9
20260902212918 78 1 0.0 0.0 0.00 0.00 0.00 52 1019.0
20260902211908 77 0 0.0 0.0 0.00 0.00 0.00 53 1019.0
20260902210858 77 1 0.0 0.0 0.00 0.00 0.00 53 1018.9
20260902205848 78 1 0.0 0.0 0.00 0.00 0.00 53 1018.9
20260902204838 78 1 0.0 0.0 0.00 0.00 0.00 53 1018.9
20260902203828 77 1 0.0 0.0 0.00 0.00 0.00 53 1018.9
20260902202818 77 0 0.0 0.0 0.00 0.00 0.00 54 1019.0
20260902201808 76 1 0.0 0.0 0.00 0.00 0.00 54 1019.0
20260902200758 76 1 0.0 0.0 0.00 0.00 0.00 54 1019.0
20260902195748 76 0 0.0 0.0 0.00 0.00 0.00 54 1019.0
20260902194738 75 1 0.0 0.0 0.00 0.00 0.00 55 1019.0
20260902193728 75 0 0.0 0.0 0.00 0.00 0.00 57 1019.0
20260902192718 74 0 0.0 0.0 0.00 0.00 0.00 58 1019.1
20260902191708 73 1 0.0 0.0 0.00 0.00 0.00 59 1019.1
20260902190658 72 0 0.0 0.0 0.00 0.00 0.00 61 1019.0
20260902185648 72 1 0.0 0.0 0.00 0.00 0.00 62 1019.0
20260902184638 71 1 0.0 0.0 0.00 0.00 0.00 63 1018.9
20260902183628 70 1 0.0 0.0 0.00 0.00 0.00 62 1019.0
20260902182618 70 1 0.0 0.0 0.00 0.00 0.00 62 1018.9
20260902181608 69 1 0.0 0.0 0.00 0.00 0.00 62 1018.9
20260902180558 69 1 0.0 0.0 0.00 0.00 0.00 63 1018.9
20260902175547 68 0 0.0 0.0 0.00 0.00 0.00 63 1018.8
20260902174537 67 1 0.0 0.0 0.00 0.00 0.00 65 1018.8
20260902173527 67 1 0.0 0.0 0.00 0.00 0.00 66 1018.7
20260902172518 66 1 0.0 0.0 0.00 0.00 0.00 67 1018.7
20260902171507 66 1 0.0 0.0 0.00 0.00 0.00 67 1018.7
20260902170457 65 2 0.0 0.0 0.00 0.00 0.00 68 1018.6
20260902165447 65 2 0.0 0.0 0.00 0.00 0.00 67 1018.5
20260902164437 64 2 0.0 0.0 0.00 0.00 0.00 67 1018.5
20260902163427 63 2 0.0 0.0 0.00 0.00 0.00 69 1018.5
20260902162417 63 2 0.0 0.0 0.00 0.00 0.00 70 1018.6
20260902161408 62 2 0.0 0.0 0.00 0.00 0.00 71 1018.5
20260902160357 61 2 0.0 0.0 0.00 0.00 0.00 73 1018.4
20260902155347 60 2 0.0 0.0 0.00 0.00 0.00 74 1018.5
20260902154337 59 2 0.0 0.0 0.00 0.00 0.00 75 1018.2
20260902153327 58 2 0.0 0.0 0.00 0.00 0.00 75 1018.1
20260902152317 57 2 0.0 0.0 0.00 0.00 0.00 76 1018.0
20260902151307 56 2 0.0 0.0 0.00 0.00 0.00 76 1017.9
20260902150257 55 2 0.0 0.0 0.00 0.00 0.00 77 1017.9
20260902145247 55 1 0.0 0.0 0.00 0.00 0.00 77 1017.9
20260902144237 55 2 0.0 0.0 0.00 0.00 0.00 76 1017.9
20260902143227 54 2 0.0 0.0 0.00 0.00 0.00 76 1018.0
20260902142217 54 2 0.0 0.0 0.00 0.00 0.00 76 1017.8
20260902141207 54 2 0.0 0.0 0.00 0.00 0.00 76 1017.7
20260902140157 54 2 0.0 0.0 0.00 0.00 0.00 76 1017.6
20260902135147 54 2 0.0 0.0 0.00 0.00 0.00 76 1017.5
20260902134137 54 2 0.0 0.0 0.00 0.00 0.00 76 1017.5
20260902133127 54 2 0.0 0.0 0.00 0.00 0.00 76 1017.4
20260902132117 54 2 0.0 0.0 0.00 0.00 0.00 76 1017.3
20260902131107 54 2 0.0 0.0 0.00 0.00 0.00 76 1017.4
20260902130057 54 2 0.0 0.0 0.00 0.00 0.00 75 1017.4
20260902125047 54 2 0.0 0.0 0.00 0.00 0.00 75 1017.4
20260902124037 54 2 0.0 0.0 0.00 0.00 0.00 75 1017.5
20260902123027 54 2 0.0 0.0 0.00 0.00 0.00 74 1017.4
20260902122017 55 2 0.0 0.0 0.00 0.00 0.00 74 1017.4
20260902121007 55 1 0.0 0.0 0.00 0.00 0.00 73 1017.3
20260902115957 55 2 0.0 0.0 0.00 0.00 0.00 72 1017.3
20260902114947 55 1 0.0 0.0 0.00 0.00 0.00 71 1017.3
20260902113937 55 1 0.0 0.0 0.00 0.00 0.00 71 1017.5
20260902112927 55 2 0.0 0.0 0.00 0.00 0.00 71 1017.5
20260902111917 55 2 0.0 0.0 0.00 0.00 0.00 72 1017.5
20260902110907 55 2 0.0 0.0 0.00 0.00 0.00 72 1017.5
20260902105857 55 2 0.0 0.0 0.00 0.00 0.00 72 1017.4
20260902104847 55 1 0.0 0.0 0.00 0.00 0.00 72 1017.3
20260902103837 55 1 0.0 0.0 0.00 0.00 0.00 72 1017.3
20260902102827 56 2 0.0 0.0 0.00 0.00 0.00 72 1017.3
20260902101817 56 2 0.0 0.0 0.00 0.00 0.00 71 1017.3
20260902100807 56 2 0.0 0.0 0.00 0.00 0.00 70 1017.3
20260902095757 56 2 0.0 0.0 0.00 0.00 0.00 70 1017.3
20260902094747 56 2 0.0 0.0 0.00 0.00 0.00 70 1017.4
20260902093737 57 1 0.0 0.0 0.00 0.00 0.00 69 1017.5
20260902092727 57 1 0.0 0.0 0.00 0.00 0.00 69 1017.5
20260902091717 57 2 0.0 0.0 0.00 0.00 0.00 69 1017.3
20260902090707 57 1 0.0 0.0 0.00 0.00 0.00 70 1017.3
20260902085657 58 1 0.0 0.0 0.00 0.00 0.00 70 1017.6
20260902084647 58 1 0.0 0.0 0.00 0.00 0.00 70 1017.7
20260902083637 57 2 0.0 0.0 0.00 0.00 0.00 70 1017.8
20260902082627 57 1 0.0 0.0 0.00 0.00 0.00 70 1017.7
20260902081617 57 2 0.0 0.0 0.00 0.00 0.00 70 1017.7
20260902080607 57 2 0.0 0.0 0.00 0.00 0.00 68 1017.6
20260902075557 57 1 0.0 0.0 0.00 0.00 0.00 68 1017.6
20260902074547 57 2 0.0 0.0 0.00 0.00 0.00 68 1017.6
20260902073537 58 1 0.0 0.0 0.00 0.00 0.00 68 1017.7
20260902072527 58 1 0.0 0.0 0.00 0.00 0.00 67 1017.6
20260902071517 58 2 0.0 0.0 0.00 0.00 0.00 66 1017.6
20260902070507 58 1 0.0 0.0 0.00 0.00 0.00 66 1017.5
20260902065457 58 1 0.0 0.0 0.00 0.00 0.00 65 1017.5
20260902064447 59 1 0.0 0.0 0.00 0.00 0.00 65 1017.5